Flag for U.S.A. Weather past 2 weeks in Scottsdale, Arizona, U.S.A.

Now
76 °F

Clear.


Feels Like: 76 °F
Forecast: 61 / 86 °F
Wind: 5 mph from Northwest

Location: Scottsdale Airport


UV Index: 7 (High)

Visibility: 10 mi


Pressure: 29.75 "Hg

Humidity: 15%

Dew point: 25 °F

Location of ScottsdaleLocation

Historic Weather in Scottsdale

°F

Scottsdale temperature yesterday

Maximum temperature yesterday: 89 °F (at 2:53 PM)
Minimum temperature yesterday: 58 °F (at 3:53 AM)
Average temperature yesterday: 75 °F

Past Weeks' High & Low Weather Summary

 TemperatureHumidityPressure
High94 °F (Apr 10, 3:53 PM)69% (Apr 3, 5:53 AM)30.11 "Hg (Apr 3, 5:53 AM)
Low47 °F (Apr 3, 3:53 AM)4% (Apr 10, 4:53 PM)29.63 "Hg (Apr 12, 4:53 PM)
Average72 °F19%29.86 "Hg
* Reported Apr 1 10:53 PM — Apr 16 10:53 PM, Scottsdale, Weather by CustomWeather, © 2014

Note: Actual official high and low records may vary slightly from our data, if they occured in-between our weather recording intervals... More about our weather records

Advertising

Historic Weather Conditions — Data for Previous 24 hours

 ConditionsComfort  
Time TempWeatherWind HumidityBarometerVisibility
10:53 PM
Apr 16
75 °FClear.No wind17%29.72 "Hg10 mi
9:53 PM77 °FClear.3 mph14%29.70 "Hg10 mi
8:53 PM77 °FClear.3 mph14%29.68 "Hg10 mi
7:53 PM82 °FClear.No wind11%29.66 "Hg10 mi
6:53 PM86 °FSunny.6 mph8%29.64 "Hg10 mi
5:53 PM87 °FSunny.9 mph8%29.64 "Hg10 mi
4:53 PM89 °FSunny.14 mph7%29.63 "Hg10 mi
3:53 PM89 °FSunny.10 mph6%29.65 "Hg10 mi
2:53 PM89 °FSunny.7 mph6%29.66 "Hg10 mi
1:53 PM88 °FSunny.7 mph6%29.68 "Hg10 mi
12:53 PM86 °FSunny.5 mph7%29.71 "Hg10 mi
11:53 AM82 °FSunny.6 mph10%29.72 "Hg10 mi
10:53 AM80 °FSunny.6 mph9%29.74 "Hg10 mi
9:53 AM78 °FSunny.8 mph9%29.75 "Hg10 mi
8:53 AM73 °FSunny.No wind17%29.75 "Hg10 mi
7:53 AM66 °FSunny.No wind21%29.74 "Hg10 mi
6:53 AM62 °FSunny.No wind21%29.73 "Hg10 mi
5:53 AM59 °FClear.No wind25%29.72 "Hg10 mi
4:53 AM58 °FClear.3 mph32%29.70 "Hg10 mi
3:53 AM58 °FClear.No wind33%29.70 "Hg10 mi
2:53 AM62 °FClear.No wind23%29.70 "Hg10 mi
1:53 AM62 °FClear.No wind23%29.71 "Hg10 mi
12:53 AM62 °FClear.No wind24%29.71 "Hg10 mi
Weather by CustomWeather, © 2014

See weather overview